Date String (YYYY-MM-DD hh:mm:ss) UTC,Instrument flags,absolute air pressure of the measurement (hPa),sample flow rate (lpm),inlet stack bypass flow (lpm),air temperature of the measurement (°C),ambient temperature measured by the external sensor (°C),aerosol sample conditioner tube jacket temperature (°C),OPC LED temperature (°C),internal box temperature (°C),relative humidity of the measurement (%),span deviation,mass concentration of particles derived from Lorenz-Mie calculation of OPC scattering (μg/m³),mass concentration of particles derived from Lorenz-Mie calculation of OPC scattering (μg/m³),mass concentration of particles derived from Lorenz-Mie calculation of OPC scattering (μg/m³)
DateTimeUTC,F1_M11,P_M11,Q1_M11,Q2_M11,T1_M11,T2_M11,T3_M11,T4_M11,T5_M11,U1_M11,ZSPAN_M11,X0_M11,X2_M11,X1_M11
2023-09-26 10:00:00,SystemResetWarning,0835.3,5.00,000.00,028.8,027.4,000.0,037.3,030.4,10.9,0000.3,0013.78,0004.74,0003.87
2023-09-26 10:01:00,SystemResetWarning,0835.3,5.00,000.00,028.8,027.4,000.0,037.3,030.4,10.8,0000.0,0013.42,0004.75,0003.88
2023-09-26 10:02:00,SystemResetWarning,0835.3,5.00,000.00,028.8,027.4,000.0,037.3,030.4,10.7,0001.7,0012.97,0004.75,0003.89
2023-09-26 10:03:00,SystemResetWarning,0835.2,5.00,000.00,028.8,027.4,000.0,037.3,030.4,10.7,0001.4,0013.28,0004.77,0003.90
2023-09-26 10:04:00,SystemResetWarning,0835.3,5.00,000.00,028.8,027.4,000.0,037.3,030.4,10.7,0000.0,0012.70,0004.78,0003.91
2023-09-26 10:05:00,SystemResetWarning,0835.2,5.00,000.00,028.8,027.4,000.0,037.3,030.4,10.7,0000.3,0011.90,0004.81,0003.91
2023-09-26 10:06:00,SystemResetWarning,0835.2,4.99,000.00,028.8,027.4,000.0,037.3,030.4,10.7,0000.0,0011.54,0004.84,0003.90
2023-09-26 10:07:00,SystemResetWarning,0835.2,5.00,000.00,028.8,027.4,000.0,037.3,030.4,10.7,0000.0,0011.51,0004.84,0003.90
2023-09-26 10:08:00,SystemResetWarning,0835.2,5.00,000.00,028.8,027.4,000.0,037.3,030.4,10.7,0000.0,0011.55,0004.86,0003.90
2023-09-26 10:09:00,SystemResetWarning,0835.2,5.00,000.00,028.8,027.4,000.0,037.3,030.4,10.7,0000.0,0011.99,0004.88,0003.89
2023-09-26 10:10:00,SystemResetWarning,0835.2,5.00,000.00,028.8,027.4,000.0,037.3,030.4,10.6,0000.0,0012.06,0004.87,0003.90
2023-09-26 10:11:00,SystemResetWarning,0835.2,5.01,000.00,028.8,027.4,000.0,037.3,030.4,10.6,0000.0,0011.81,0004.82,0003.89
2023-09-26 10:12:00,SystemResetWarning,0835.2,5.00,000.00,028.8,027.4,000.0,037.3,030.4,10.6,0000.0,0011.55,0004.83,0003.89
2023-09-26 10:13:00,SystemResetWarning,0835.2,5.00,000.00,028.8,027.4,000.0,037.3,030.4,10.6,0000.0,0011.53,0004.83,0003.89
2023-09-26 10:14:00,SystemResetWarning,0835.2,5.00,000.00,028.8,027.4,000.0,037.3,030.4,10.7,0000.0,0010.72,0004.84,0003.89
2023-09-26 10:15:00,SystemResetWarning,0835.2,5.00,000.00,028.8,027.4,000.0,037.3,030.4,10.6,0000.0,0010.86,0004.85,0003.88
2023-09-26 10:16:00,SystemResetWarning,0835.2,5.00,000.00,028.8,027.4,000.0,037.3,030.4,10.7,0000.0,0010.92,0004.81,0003.87
2023-09-26 10:17:00,SystemResetWarning,0835.2,5.00,000.00,028.8,027.4,000.0,037.3,030.4,10.7,0000.0,0011.01,0004.80,0003.87
2023-09-26 10:18:00,SystemResetWarning,0835.2,5.00,000.00,028.8,027.4,000.0,037.3,030.4,10.8,0000.0,0010.85,0004.76,0003.87
2023-09-26 10:19:00,SystemResetWarning,0835.2,4.99,000.00,028.8,027.4,000.0,037.3,030.4,10.7,0000.0,0010.75,0004.75,0003.86
2023-09-26 10:20:00,SystemResetWarning,0835.2,4.99,000.00,028.8,027.4,000.0,037.3,030.4,10.6,0000.0,0010.40,0004.71,0003.85
2023-09-26 10:21:00,SystemResetWarning,0835.2,5.00,000.00,028.8,027.4,000.0,037.3,030.4,10.6,0000.0,0010.35,0004.71,0003.85
2023-09-26 10:22:00,SystemResetWarning,0835.3,5.00,000.00,028.8,027.4,000.0,037.3,030.4,10.6,0000.0,0010.49,0004.69,0003.84
2023-09-26 10:23:00,SystemResetWarning,0835.2,5.01,000.00,028.8,027.4,000.0,037.3,030.4,10.5,0000.0,0011.06,0004.68,0003.84
2023-09-26 10:24:00,SystemResetWarning,0835.2,5.01,000.00,028.8,027.4,000.0,037.3,030.4,10.6,0000.0,0011.36,0004.68,0003.83
2023-09-26 10:25:00,SystemResetWarning,0835.2,5.00,000.00,028.8,027.4,000.0,037.3,030.4,10.6,0000.0,0011.33,0004.67,0003.82
2023-09-26 10:26:00,SystemResetWarning,0835.2,4.99,000.00,028.8,027.4,000.0,037.3,030.4,10.6,0000.0,0011.29,0004.63,0003.80
2023-09-26 10:27:00,SystemResetWarning,0835.3,5.00,000.00,028.8,027.4,000.0,037.3,030.4,10.6,0000.0,0011.56,0004.61,0003.80
2023-09-26 10:28:00,SystemResetWarning,0835.2,4.99,000.00,028.8,027.4,000.0,037.3,030.4,10.6,0000.0,0011.63,0004.57,0003.79
2023-09-26 10:29:00,SystemResetWarning,0835.2,5.00,000.00,028.8,027.4,000.0,037.3,030.4,10.6,0000.0,0011.78,0004.59,0003.79
2023-09-26 10:30:00,SystemResetWarning,0835.2,5.00,000.00,028.8,027.4,000.0,037.3,030.4,10.6,0000.0,0011.71,0004.56,0003.79
2023-09-26 10:31:00,SystemResetWarning,0835.2,5.00,000.00,028.8,027.4,000.0,037.3,030.4,10.5,0000.0,0011.71,0004.57,0003.76
2023-09-26 10:32:00,SystemResetWarning,0835.2,5.00,000.00,028.8,027.4,000.0,037.3,030.4,10.6,0000.0,0011.63,0004.54,0003.74
2023-09-26 10:33:00,SystemResetWarning,0835.2,5.00,000.00,028.8,027.4,000.0,037.3,030.4,10.6,0000.4,0011.57,0004.57,0003.72
2023-09-26 10:34:00,SystemResetWarning,0835.2,5.00,000.00,028.8,027.4,000.0,037.3,030.4,10.6,0000.2,0011.31,0004.54,0003.71
2023-09-26 10:35:00,SystemResetWarning,0835.2,5.00,000.00,028.8,027.4,000.0,037.3,030.4,10.6,0000.0,0011.77,0004.51,0003.69
2023-09-26 10:36:00,SystemResetWarning,0835.2,5.00,000.00,028.8,027.4,000.0,037.3,030.4,10.6,0000.0,0013.31,0004.52,0003.67
2023-09-26 10:37:00,SystemResetWarning,0835.3,5.00,000.00,028.8,027.4,000.0,037.3,030.4,10.7,0000.2,0013.84,0004.53,0003.65
2023-09-26 10:38:00,SystemResetWarning,0835.2,5.00,000.00,028.8,027.4,000.0,037.3,030.4,10.6,0001.1,0013.28,0004.55,0003.65
2023-09-26 10:39:00,SystemResetWarning,0835.2,5.00,000.00,028.8,027.4,000.0,037.3,030.4,10.6,0001.4,0012.86,0004.53,0003.64
2023-09-26 10:40:00,SystemResetWarning,0835.2,5.00,000.00,028.8,027.4,000.0,037.3,030.4,10.6,0000.0,0012.81,0004.53,0003.62
2023-09-26 10:41:00,SystemResetWarning,0835.2,5.00,000.00,028.8,027.4,000.0,037.3,030.4,10.6,0000.3,0012.99,0004.58,0003.62
2023-09-26 10:42:00,SystemResetWarning,0835.3,5.00,000.00,028.8,027.4,000.0,037.3,030.4,10.7,0001.7,0013.06,0004.58,0003.63
2023-09-26 10:43:00,SystemResetWarning,0835.2,5.00,000.00,028.8,027.4,000.0,037.3,030.4,10.7,0001.9,0013.36,0004.60,0003.63
2023-09-26 10:44:00,SystemResetWarning,0835.2,4.99,000.00,028.8,027.4,000.0,037.3,030.4,10.6,0001.1,0013.30,0004.60,0003.63
2023-09-26 10:45:00,SystemResetWarning,0835.2,5.00,000.00,028.8,027.4,000.0,037.3,030.4,10.6,0000.0,0012.92,0004.59,0003.62
2023-09-26 10:46:00,SystemResetWarning,0835.2,5.00,000.00,028.8,027.4,000.0,037.3,030.4,10.6,0001.2,0011.93,0004.57,0003.62
2023-09-26 10:47:00,SystemResetWarning,0835.2,5.00,000.00,028.8,027.4,000.0,037.3,030.4,10.7,0000.7,0010.48,0004.56,0003.61
2023-09-26 10:48:00,SystemResetWarning,0835.2,5.00,000.00,028.8,027.4,000.0,037.3,030.4,10.7,0000.0,0009.97,0004.56,0003.60
2023-09-26 10:49:00,SystemResetWarning,0835.3,5.00,000.00,028.8,027.4,000.0,037.3,030.4,10.6,0000.0,0010.61,0004.54,0003.60
2023-09-26 10:50:00,SystemResetWarning,0835.3,4.99,000.00,028.8,027.4,000.0,037.3,030.4,10.6,0000.0,0010.51,0004.53,0003.60
2023-09-26 10:51:00,SystemResetWarning,0835.2,5.00,000.00,028.8,027.4,000.0,037.3,030.3,10.6,0000.0,0010.47,0004.53,0003.60
2023-09-26 10:52:00,SystemResetWarning,0835.2,5.00,000.00,028.8,027.4,000.0,037.3,030.4,10.6,0000.0,0010.52,0004.52,0003.58
2023-09-26 10:53:00,SystemResetWarning,0835.2,5.01,000.00,028.8,027.4,000.0,037.3,030.4,10.6,0000.0,0010.78,0004.51,0003.58
2023-09-26 10:54:00,SystemResetWarning,0835.3,5.01,000.00,028.8,027.4,000.0,037.3,030.4,10.6,0000.0,0010.67,0004.53,0003.58
2023-09-26 10:55:00,SystemResetWarning,0835.3,5.00,000.00,028.8,027.4,000.0,037.3,030.4,10.6,0000.0,0010.36,0004.51,0003.57
2023-09-26 10:56:00,SystemResetWarning,0835.3,5.00,000.00,028.8,027.4,000.0,037.3,030.4,10.6,0000.0,0010.37,0004.52,0003.57
2023-09-26 10:57:00,SystemResetWarning,0835.3,5.00,000.00,028.8,027.4,000.0,037.3,030.4,10.6,0000.0,0011.37,0004.57,0003.57
2023-09-26 10:58:00,SystemResetWarning,0835.3,5.00,000.00,028.8,027.4,000.0,037.3,030.4,10.6,0000.0,0011.97,0004.60,0003.57
2023-09-26 10:59:00,SystemResetWarning,0835.3,5.00,000.00,028.8,027.4,000.0,037.3,030.4,10.5,0000.0,0011.90,0004.58,0003.57
